« Back
NWS Peachtree City, Ga » Text Product » GA Regional Weather Roundup


Printer-friendly Version
Current Version              Previous Versions:   1  2  3  4  5  6  7  8  9  

Regional Weather Roundup

920
ASUS42 KFFC 100103
RWRGA
WEATHER ROUNDUP FOR GEORGIA
NATIONAL WEATHER SERVICE PEACHTREE CITY GA
800 PM EST TUE FEB 09 2016

NOTE: "FAIR" INDICATES FEW OR NO CLOUDS BELOW 12,000 FEET WITH NO
SIGNIFICANT WEATHER AND/OR OBSTRUCTIONS TO VISIBILITY.

* = USE WITH CAUTION. THE STATIONS MARKED WITH AN ASTERISK MAY NOT
REPORT WEATHER SUCH AS PRECIPITATION, FOG, OR THUNDER AND ARE NOT
QUALITY CONTROLLED BY NWS.

THE REMARK "TC" DENOTES TEMPERATURE READING IN DEGREES CELSIUS.

GAZ001>058-100200-
NORTH GEORGIA

CITY           SKY/WX    TMP DP  RH WIND       PRES   REMARKS
ATLANTA        MOCLDY    31  18  58 NW13      29.98R WCI  21
ATHENS         PTCLDY    30  19  63 W13G23    29.94R WCI  20
CHAMBLEE       PTCLDY    29  17  61 W13       29.97R WCI  19
PEACHTREE CITY MOCLDY    31  20  63 VRB6      30.00R WCI  25
ROME           CLOUDY    29  17  61 NW9       30.02R WCI  20
WEST ATLANTA   CLOUDY    30  20  66 NW10      30.00R WCI  21
GAINESVILLE    LGT SNOW  26  21  81 W13G25    29.94R WCI  15
CARTERSVILLE   CLOUDY    30  18  60 MISG      30.02R


CITY           SKY/WX    TMP DP  RH WIND       PRES   REMARKS
LAWRENCEVILLE* MOCLDY    28  18  64 W9G21     29.94R WCI  20
MARIETTA       MOCLDY    29  17  62 W14       29.97R WCI  18
KENNESAW*      MOCLDY    28  16  59 NW7       29.98R WCI  21
BLAIRSVILLE*   LGT SNOW  24   6  46 NW10G18   29.89R WCI  14
$$

GAZ059>098-102>109-100200-
CENTRAL GEORGIA

CITY           SKY/WX    TMP DP  RH WIND       PRES   REMARKS
AUGUSTA-BUSH   MOCLDY    36  19  50 W21G28    29.96R WCI  25
AUGUSTA-DANIEL PTCLDY    36  19  50 W12G21    29.95R WCI  28
COLUMBUS       PTCLDY    37  18  46 N6        30.02R WCI  32
MACON          MOCLDY    33  24  69 W5        30.01R WCI  29
ROBINS AFB     CLOUDY    34  22  61 NW6       30.00R WCI  29


CITY           SKY/WX    TMP DP  RH WIND       PRES   REMARKS
LAGRANGE*      PTCLDY    36  26  65 CALM      30.02R
SYLVANIA*      CLOUDY    40  29  64 NW14G24   29.96R WCI  33
MILLEDGEVILLE* PTCLDY    34  21  60 CALM      29.99R
$$

GAZ099>101-110>166-100200-
SOUTH GEORGIA

CITY           SKY/WX    TMP DP  RH WIND       PRES   REMARKS
SAVANNAH       MOCLDY    43  23  45 W10       29.95R
VALDOSTA       CLEAR     43  21  41 CALM      30.01R
ALMA           PTCLDY    43  21  41 NW9       29.98R
ST SIMONS      CLEAR     45  23  42 W7        29.94R
FT STEWART     CLOUDY    43  23  45 W13       29.94R
ALBANY         PTCLDY    42  15  33 NW7       30.03R
HUNTER AFB     CLOUDY    43  25  48 W13       29.92R
MOODY AFB      CLEAR     44  18  34 W8        29.99R
BRUNSWICK      CLEAR     45  27  49 W6        29.95R


CITY           SKY/WX    TMP DP  RH WIND       PRES   REMARKS
BAINBRIDGE*    CLEAR     41  25  52 W3        30.03R
MOULTRIE*      PTCLDY    45  19  36 W5        30.01R
VIDALIA*       PTCLDY    39  27  60 NW15      29.99R WCI  31
WAYCROSS*      CLOUDY    47  26  43 NW8       29.98R
DOUGLAS*       CLEAR     45  19  36 NW6       30.01R
$$




USA.gov is the U.S. government's official web portal to all federal, state and local government web resources and services.